Regional Weather Roundup
Issued by NWS Upton, NY

Current Version | Previous Version | Text Only | Print | Product List | Glossary On
Versions: 1 2 3 4 5 6 7 8 9 10 11 12 13 14 15 16 17 18 19 20 21 22 23 24 25 26 27 28 29 30 31 32 33 34 35 36 37 38 39 40 41 42 43 44 45 46 47 48 49 50
000 ASUS41 KOKX 291004 RWROKX REGIONAL WEATHER ROUNDUP NATIONAL WEATHER SERVICE NEW YORK NY 600 AM EDT SAT AUG 29 2015 NOTE: "FAIR" INDICATES FEW OR NO CLOUDS BELOW 12,000 FEET WITH NO SIGNIFICANT WEATHER AND/OR OBSTRUCTIONS TO VISIBILITY. NYZ071-072-176-178-NJZ106-104-291100- NEW YORK CITY METRO AREA CITY SKY/WX TMP DP RH WIND PRES REMARKS CENTRAL PARK CLEAR 68 53 58 CALM 30.21S LAGUARDIA APRT PTCLDY 70 55 59 NW6 30.18S KENNEDY INTL PTCLDY 69 60 73 CALM 30.19S NEWARK/LIBERTY PTCLDY 64 55 72 CALM 30.19R BRNX BOT. GARD N/A 63 55 77 N2 30.20S TETERBORO CLEAR 61 54 77 CALM 30.18S $$ NYZ177-179-078>081-291100- LONG ISLAND NEW YORK CITY SKY/WX TMP DP RH WIND PRES REMARKS FARMINGDALE CLEAR 63 57 81 CALM 30.19R ISLIP PTCLDY 60 57 89 CALM 30.17S SHIRLEY N/A 58 56 93 CALM 30.19S WESTHAMPTON CLEAR 52 49 89 CALM 30.20S MONTAUK POINT N/A 64 60 87 CALM 30.19S $$ NYZ052-065-067-291100- HUDSON VALLEY CITY SKY/WX TMP DP RH WIND PRES REMARKS WHITE PLAINS CLEAR 59 55 87 NW5 30.19S NEWBURGH CLEAR 55 54 94 CALM 30.21S MONTGOMERY CLEAR 51 50 96 CALM 30.21R POUGHKEEPSIE CLEAR 54 51 90 CALM 30.20R ALBANY PTCLDY 55 52 89 CALM 30.19S $$ NJZ001-105-106-008-010-013-015-019>022-104-291100- NEW JERSEY CITY SKY/WX TMP DP RH WIND PRES REMARKS NEWARK/LIBERTY PTCLDY 64 55 72 CALM 30.19R TETERBORO CLEAR 61 54 77 CALM 30.18S CALDWELL CLEAR 56 53 90 CALM 30.21R MORRISTOWN CLEAR 48 45 87 CALM 30.20S SOMERVILLE CLEAR 53 51 93 NW3 30.18S SUSSEX CLEAR 49 47 93 CALM 30.22R ANDOVER N/A 51 50 96 CALM 30.22 TRENTON CLEAR 58 55 90 CALM 30.19S MILLVILLE CLEAR 55 54 96 CALM 30.20R ATLANTIC CITY CLEAR 57 54 89 CALM 30.20R WRIGHTSTOWN CLEAR 56 55 97 CALM 30.17S TOMS RIVER CLEAR 54 50 87 CALM 30.20S BELMAR CLEAR 61 54 77 NW5 30.19S $$ PAZ047>061-062-071-291100- EASTERN PENNSYLVANIA CITY SKY/WX TMP DP RH WIND PRES REMARKS PHILADELPHIA PTCLDY 66 57 72 CALM 30.20S ALLENTOWN CLEAR 54 52 93 NW3 30.21R SCRANTON CLEAR 53 50 89 SE3 30.22R $$ CTZ002-004>006-009-010-012-RIZ004-006-007-MAZ004-011-015-291100- SOUTHERN NEW ENGLAND IN CT CITY SKY/WX TMP DP RH WIND PRES REMARKS BRADLEY INTL PTCLDY 55 53 93 CALM 30.19R HARTFORD CLEAR 58 55 90 CALM 30.19R DANBURY CLEAR 52 48 86 SW3 30.21S WTRBRY/OXFORD CLEAR 54 45 71 N3 30.21S BRIDGEPORT CLEAR 60 55 83 CALM 30.18S MERIDEN CLEAR 54 51 90 CALM 30.19R NEW HAVEN CLEAR 57 55 93 CALM 30.19R CHESTER NOT AVBL GROTON CLEAR 56 55 97 N5 30.18R WILLIMANTIC CLOUDY 54 51 90 CALM 30.20R IN RI CITY SKY/WX TMP DP RH WIND PRES REMARKS PROVIDENCE PTCLDY 60 56 86 W5 30.19R BLOCK ISLAND CLEAR 64 63 94 NW5 30.19R WESTERLY CLEAR 55 53 93 CALM 30.19R IN MA CITY SKY/WX TMP DP RH WIND PRES REMARKS BOSTON PTCLDY 64 56 75 W3 30.17R WORCESTER CLEAR 59 51 75 W7 30.20R WESTFIELD CLEAR 52 50 93 CALM 30.19R FOG PROVINCETOWN PTCLDY 57 52 82 CALM 30.17R NANTUCKET CLEAR 67 63 87 W8 30.18R $$ ANZ330-335-338-340-345-350-353-355-291100- COASTAL MARINE OBSERVATIONS STATION/POSITION TIME SKY/WX TEMP WIND PRES VSBY WAVE AIR SEA DIR/SP/G HT/PER (UTC) (F) (DEG/KT/KT) (MB) (MI) (FT/S) NY HARB ENTRANCE 0850 72 75 260/ 6/ 8 1021.7 3/10 4S FIRE IS NOT AVBL 20S FIRE ISLAND 0850 73 74 300/ 4/ 6 1021.9 3/11 GREAT SOUTH BAY 0915 71 78 300/ 4/ 4 N/A 23SW MTP 0950 72 72 270/ 6/ 8 1021.4 3/11 HUDSON CANYON NOT AVBL KINGS POINT NOT AVBL EXECUTION ROCKS 0900 69 290/ 2/ 4 N/A CENTRAL LI SOUND NOT AVBL EASTERN LI SOUND 0900 68 71 360/ 6/ 8 N/A ROBBINS REEF NOT AVBL $$ >>>>>>>>>>>>>>>>>>>>>>>>>>>> KEY <<<<<<<<<<<<<<<<<<<<<<<<<<< > < > SKY/WX - SKY CONDITION/PRESENT WEATHER < > TMP - TEMPERATURE IN FAHRENHEIT < > DP - DEWPOINT IN FAHRENHEIT < > RH - RELATIVE HUMIDITY IN PERCENT < > WIND - DIRECTION AND SPEED IN MPH < > PRES - MEAN SEA LEVEL PRESSURE IN INCHES OF HG < > WCI - WIND CHILL INDEX < > VSB - VISIBILITY IN MILES < > HX - HEAT INDEX < > TC - TEMPERATURE IN CELSIUS < > VRB - VARIABLE WIND DIRECTION < > < >>>>>>>>>>>>>>>>>>>>>>>>>>>> KEY <<<<<<<<<<<<<<<<<<<<<<<<<<<

USA.gov is the U.S. government's official web portal to all federal, state and local government web resources and services.